This demonstration page uses our WeatherBlox Daily Observations layout. Learn more.

Left ArrowRight Arrow

Hourly Observations for February 15, 2020

Temp ( °F °C ) Dew Point ( °F °C ) Humidity (%) Winds ( mph kmh ) Pressure ( in mb ) Visibility ( mi km ) Precip ( " mm )
12:59 am 00:59 Mostly Cloudy 34 1.1 18 -7.8 52 52 NE 12 19 30.58 1035 10 16 0.00 0.00
1:59 am 01:59 Mostly Cloudy 33 0.6 17 -8.3 52 52 NE 13 20 30.58 1036 10 16 0.00 0.00
2:59 am 02:59 Partly Cloudy 32 0 16 -8.9 52 52 NNE 10 17 30.58 1035 10 16 0.00 0.00
3:59 am 03:59 Partly Cloudy 31 -0.6 15 -9.4 52 52 NE 12 19 30.59 1036 10 16 0.00 0.00
4:59 am 04:59 Partly Cloudy 31 -0.6 14 -10 49 49 ENE 14 22 30.59 1036 10 16 0.00 0.00
5:59 am 05:59 Mostly Clear 30 -1.1 14 -10 51 51 NE 10 17 30.60 1036 10 16 0.00 0.00
6:59 am 06:59 Mostly Sunny 30 -1.1 15 -9.4 54 54 NE 12 19 30.60 1036 10 16 0.00 0.00
7:59 am 07:59 Mostly Sunny 32 0 16 -8.9 52 52 NE 10 17 30.63 1037 10 16 0.00 0.00
8:59 am 08:59 Mostly Sunny 34 1.1 18 -7.8 52 52 NE 10 17 30.65 1038 10 16 0.00 0.00
9:59 am 09:59 Mostly Sunny 35 1.7 18 -7.8 50 50 N 9 15 30.66 1038 10 16 0.00 0.00
10:59 am 10:59 Partly Cloudy 36 2.2 17 -8.3 46 46 NNE 8 13 30.65 1038 10 16 0.00 0.00
11:59 am 11:59 Partly Cloudy 37 2.8 18 -7.8 46 46 VRB 7 11 30.63 1037 10 16 0.00 0.00
12:59 pm 12:59 Partly Cloudy 37 2.8 19 -7.2 48 48 NNE 7 11 30.60 1036 10 16 0.00 0.00
1:59 pm 13:59 Partly Cloudy 38 3.3 21 -6.1 51 51 ENE 8 13 30.56 1035 10 16 0.00 0.00
2:59 pm 14:59 Mostly Cloudy 38 3.3 22 -5.6 52 52 ENE 9 15 30.53 1034 10 16 0.00 0.00
3:59 pm 15:59 Mostly Cloudy 38 3.3 23 -5 55 55 ENE 10 17 30.50 1033 10 16 0.00 0.00
4:59 pm 16:59 Mostly Cloudy 37 2.8 25 -3.9 62 62 E 8 13 30.48 1032 10 16 0.00 0.00
5:59 pm 17:59 Partly Cloudy 36 2.2 26 -3.3 67 67 E 8 13 30.49 1032 10 16 0.00 0.00
6:59 pm 18:59 Cloudy 35 1.7 26 -3.3 70 70 ESE 7 11 30.49 1032 10 16 0.00 0.00
7:59 pm 19:59 Mostly Cloudy 34 1.1 26 -3.3 73 73 SE 6 9 30.47 1032 10 16 0.00 0.00
8:59 pm 20:59 Mostly Cloudy 34 1.1 26 -3.3 73 73 SE 5 7 30.46 1031 10 16 0.00 0.00
9:59 pm 21:59 Mostly Cloudy 32 0 26 -3.3 79 79 SSE 3 6 30.45 1031 10 16 0.00 0.00
10:59 pm 22:59 Mostly Cloudy 33 0.6 27 -2.8 78 78 SSE 5 7 30.43 1031 10 16 0.00 0.00
11:59 pm 23:59 Partly Cloudy 32 0 27 -2.8 82 82 S 5 7 30.40 1029 10 16 0.00 0.00

Powered by AerisWeather